Location: *
(43.9905°S, 176.4941°W)
Time: 20:53:06
(UTC+00:00)

USA 267 - Pass Details

Date: 08 December 2019
Orbit: 1100 x 1107 km, 123.0° (Epoch: 19 January)

Event Time Altitude Azimuth Distance (km) Brightness Sun altitude
Rises 09:50:24 0° 131° (SE) 3,956 6.4 -18.9°
Reaches altitude 10° 09:52:54 10° 130° (SE) 2,994 5.7 -19.1°
Maximum altitude 09:59:33 90° 218° (SW) 1,119 3.2 -19.6°
Drops below altitude 10° 10:06:08 10° 308° (NW) 2,967 5.4 -20.1°
Sets 10:08:36 0° 307° (NW) 3,919 6.0 -20.2°
